STARLINK-1564, 46058

Orbit data source: Space-Track

STARLINK-1564, 46058 is a payload satellite owned by SpaceX/Seattle (US) in LEO that was launched on Fri, 07 Aug 2020 UTC via an FALCON 9 launch vehicle from the Air Force Eastern Test Range (AFETR). Payload-class satellites include a variety of spacecraft equipped with specific instruments for various scientific and technological missions. These include communications satellites like Starlink; space stations such as the ISS; scientific satellites like the Hubble; Earth observation satellites from companies like Planet Labs, Umbra, and HawkEye 360; GPS; miniature CubeSats for education and research; and military/defense satellites.

Loading next visibility...
Identifier
46058, 2020-055AH
Orbit
LEO
Country
Flag of USUS
Related business
Manufacturer
SpaceX/Seattle
Mission
Operational Commercial Communications
Bus & Motor
STARLINK, Unknown motor
Mass
260 kg wet, ~248 kg dry
Launch date (UTC)
2020-08-07 (6 years ago)
Launch vehicle
FALCON 9
Launch site
Air Force Eastern Test Range (AFETR)
Object type
Payload
Rocket body
Debris
Shape & HBR
Box + 1 Pan, 10.1 m
Radar Cross Section
13.562 m², Large (>1 m²)

Expand to show TLE details & history
Last TLE update: 21 hours ago

TLE from 21 hours ago
0 STARLINK-1564
1 46058U 20055AH  26227.04765999  .00003684  00000-0  13028-3 0  9991
2 46058  53.1613  98.5601 0001223  87.3356 272.7785 15.31731151333312
Epoch: 2026-08-15T01:08Z
TLE epoch observation values (Epoch: 2026-08-15T01:08:37.823Z)
Latitude
-0.00004°
Longitude
117.93834°
Altitude
471.507 km
Speed
7.632 km/s
True Right ascension
06h 34m 14s
True Declination
0° 00' 00"
Sunlit
Object was in daylight at epoch
Visualization orbit readout
Latitude
Unknown
Longitude
Unknown
Altitude
Unknown
Speed
Unknown
Apparent Right ascension
Unknown
Apparent Declination
Unknown
Sunlit
N/A
Visualization observer readout
Local Sidereal Time
12:55:55
Azimuth
Unknown
Elevation
Unknown
Doppler factor
Unknown
Orbital elements
Apogee altitude
471.741 km
Perigee altitude
470.066 km
Semi-major axis
6,849.041 km
Eccentricity
0.00012
Inclination
53.1613°
RAAN
98.5601°
Arg. of periapsis
87.3356°
True anomaly
272.7645°
Mean anomaly
272.7785°
Eccentric anomaly
272.7715°
Mean motion
3.82912 °/min
Orbital period
94.02 mins
BSTAR
0.00013028
Loading maneuver chart data...
Computing Atmospheric mass density...
Loading historical data...
Loading historical data...
Loading historical data...
Loading historical data...
Loading historical data...
Loading historical data...
Loading historical data...

Documentation

Showing up to 5 results
|